World > North America > United States > New York

Hourly Ricard, NY Regional Weather

Feedback E-mail the Weather

Latest News

Ricard, NY Weather Maps

°F °C°F °C
Ricard Weather Map
UTC Time: 5/23/2022, 02:20
Your Time:

Ricard, NY Regional Weather

Expires:202205230300;;420313
ASUS41 KALY 230210
RWRALY

NEW YORK STATE HOURLY WEATHER ROUNDUP
NATIONAL WEATHER SERVICE ALBANY NY
1000 PM EDT SUN MAY 22 2022

NOTE: "FAIR" INDICATES FEW OR NO CLOUDS BELOW 12,000 FEET WITH NO
SIGNIFICANT WEATHER AND/OR NO OBSTRUCTIONS TO VISIBILITY.


NYZ005>009-017-018-044>046-055-056-230300-
CENTRAL

  
CITY           SKY/WX    TMP DP  RH WIND       PRES   REMARKS
FULTON         CLEAR     50  47  89 W7        30.20R                  
SYRACUSE       PTCLDY    51  48  89 W7        30.20R                  
ROME           CLOUDY    55  51  86 W10       30.19R                  
ELMIRA         CLEAR     56  48  74 CALM      30.21R                  
BINGHAMTON     MOCLDY    53  48  83 N13       30.18R                  
MONTICELLO     LGT RAIN  62  59  90 NW12G18   30.11R                  
$$


SKY/WX - Weather  TMP - Temperature  DP - Dew Point  RH - Humidity
WIND - Wind Direction/Speed PRES - Barometric Pressure VSB - Visibility
WCI - Wind Chill Index E13G22 Wind - East Wind 13 mph/Gusts of 22 mph

Trending Headlines

Ricard Radar Loop



Ricard Quick Facts


National Two Day Weather Forecast


E-mail the Ricard Weather Forecast

Voice your opinion or tell us about page issues...